Thermopolis, WY

2:14 AM MDT on July 24, 2017 (GMT -0600)
Thermopolis

Weather History for KTBX - November, 2013

Change the Weather History Date:

Tuesday, November 26, 2013

  Actual Average (KWRL) Record (KWRL)
Temperature  
Mean Temperature 32 °F -  
Max Temperature 35 °F 36 °F 66 °F (1998)
Min Temperature 28 °F 13 °F -15 °F (1985)
Degree Days  
Heating Degree Days 34    
Moisture  
Dew Point 19 °F    
Average Humidity 58    
Maximum Humidity 64    
Minimum Humidity 48    
Precipitation  
Precipitation 0.00 in - - ()
Sea Level Pressure  
Sea Level Pressure 30.37 in    
Wind  
Wind Speed 11 mph (South)    
Max Wind Speed 18 mph    
Max Gust Speed 21 mph    
Visibility 10 miles    
Events      
Averages and records for this station are not official NWS values.
T = Trace of Precipitation, MM = Missing Value Source: NWS Daily Summary

Daily Weather History Graph

Daily Weather History Graph

Search for Another Location

Airport or City:

Trip Planner

Search our weather history database for the weather conditions in past years. The results will help you decide how hot, cold, wet, or windy it might be!

Date:

Astronomy

Nov. 26, 2013 Rise Set
Actual Time 7:20 AM MST 4:39 PM MST
Civil Twilight 6:48 AM MST 5:11 PM MST
Nautical Twilight 6:13 AM MST 5:46 PM MST
Astronomical Twilight 5:39 AM MST 6:21 PM MST
Moon 12:15 AM MST (11/26) 12:58 PM MST (11/26)
Length of Visible Light 10h 22m
Length of Day
9h 19m
Last Quarter, 40% of the Moon is Illuminated
Nov 26
Last Quarter
Dec 2
New
Dec 9
First Quarter
Dec 17
Full
Dec 25
Last Quarter

Hourly Weather History & Observations

Time (MST) Temp. Windchill Dew Point Humidity Pressure Visibility Wind Dir Wind Speed Gust Speed Precip Events Conditions
12:15 AM 30.2 °F 23.4 °F 17.6 °F 60% 30.43 in 10.0 mi WNW 6.9 mph - N/A   Unknown
12:35 AM 30.2 °F 24.3 °F 17.6 °F 60% 30.43 in 10.0 mi WNW 5.8 mph - N/A   Unknown
12:55 AM 30.2 °F 23.4 °F 17.6 °F 60% 30.43 in 10.0 mi West 6.9 mph - N/A   Unknown
1:15 AM 30.2 °F 22.6 °F 17.6 °F 60% 30.43 in 10.0 mi West 8.1 mph - N/A   Unknown
1:35 AM 32.0 °F 24.8 °F 17.6 °F 55% 30.42 in 10.0 mi West 8.1 mph - N/A   Unknown
1:55 AM 32.0 °F 25.6 °F 17.6 °F 55% 30.43 in 10.0 mi West 6.9 mph - N/A   Unknown
2:15 AM 30.2 °F 24.3 °F 17.6 °F 60% 30.43 in 10.0 mi West 5.8 mph - N/A   Unknown
2:35 AM 30.2 °F 21.9 °F 17.6 °F 60% 30.43 in 10.0 mi SSW 9.2 mph - N/A   Unknown
2:55 AM 30.2 °F 20.8 °F 17.6 °F 60% 30.42 in 10.0 mi SSW 11.5 mph - N/A   Unknown
3:15 AM 28.4 °F 18.5 °F 17.6 °F 64% 30.42 in 10.0 mi SSW 11.5 mph - N/A   Unknown
3:35 AM 28.4 °F 19.1 °F 17.6 °F 64% 30.42 in 10.0 mi SSW 10.4 mph - N/A   Unknown
3:55 AM 28.4 °F 17.5 °F 17.6 °F 64% 30.42 in 10.0 mi SSW 13.8 mph - N/A   Unknown
4:15 AM 28.4 °F 17.5 °F 17.6 °F 64% 30.42 in 10.0 mi SSW 13.8 mph - N/A   Unknown
4:35 AM 28.4 °F 16.6 °F 17.6 °F 64% 30.41 in 10.0 mi SSW 16.1 mph - N/A   Unknown
4:55 AM 28.4 °F 17.0 °F 17.6 °F 64% 30.42 in 10.0 mi SSW 15.0 mph - N/A   Unknown
5:15 AM 28.4 °F 16.2 °F 17.6 °F 64% 30.42 in 10.0 mi SSW 17.3 mph - N/A   Unknown
5:35 AM 28.4 °F 17.0 °F 17.6 °F 64% 30.42 in 10.0 mi SSW 15.0 mph - N/A   Unknown
5:55 AM 28.4 °F 17.0 °F 17.6 °F 64% 30.42 in 10.0 mi SSW 15.0 mph - N/A   Unknown
6:15 AM 28.4 °F 18.0 °F 17.6 °F 64% 30.42 in 10.0 mi South 12.7 mph - N/A   Unknown
6:35 AM 30.2 °F 19.8 °F 17.6 °F 60% 30.41 in 10.0 mi South 13.8 mph - N/A   Unknown
6:55 AM 30.2 °F 20.2 °F 17.6 °F 60% 30.42 in 10.0 mi South 12.7 mph - N/A   Unknown
7:15 AM 30.2 °F 20.2 °F 15.8 °F 55% 30.42 in 10.0 mi South 12.7 mph - N/A   Unknown
7:35 AM 30.2 °F 20.2 °F 15.8 °F 55% 30.42 in 10.0 mi South 12.7 mph - N/A   Unknown
7:55 AM 30.2 °F 19.8 °F 15.8 °F 55% 30.42 in 10.0 mi South 13.8 mph - N/A   Unknown
8:15 AM 30.2 °F 20.8 °F 15.8 °F 55% 30.42 in 10.0 mi South 11.5 mph - N/A   Unknown
8:35 AM 32.0 °F 22.5 °F 17.6 °F 55% 30.43 in 10.0 mi South 12.7 mph - N/A   Unknown
8:55 AM 32.0 °F 22.1 °F 17.6 °F 55% 30.43 in 10.0 mi South 13.8 mph - N/A   Unknown
9:15 AM 32.0 °F 22.5 °F 17.6 °F 55% 30.43 in 10.0 mi SSE 12.7 mph - N/A   Unknown
9:35 AM 32.0 °F 21.6 °F 17.6 °F 55% 30.43 in 10.0 mi South 15.0 mph - N/A   Unknown
9:55 AM 32.0 °F 22.5 °F 17.6 °F 55% 30.43 in 10.0 mi SSE 12.7 mph - N/A   Unknown
10:15 AM 32.0 °F 22.1 °F 17.6 °F 55% 30.43 in 10.0 mi SSE 13.8 mph - N/A   Unknown
10:35 AM 33.8 °F 25.8 °F 19.4 °F 56% 30.43 in 10.0 mi SSE 10.4 mph - N/A   Unknown
10:55 AM 33.8 °F 24.8 °F 19.4 °F 56% 30.42 in 10.0 mi SSE 12.7 mph - N/A   Unknown
11:15 AM 33.8 °F 26.4 °F 19.4 °F 56% 30.42 in 10.0 mi SSE 9.2 mph - N/A   Unknown
11:35 AM 35.6 °F 28.6 °F 17.6 °F 48% 30.41 in 10.0 mi SSE 9.2 mph - N/A   Unknown
11:55 AM 35.6 °F 29.2 °F 19.4 °F 52% 30.40 in 10.0 mi SE 8.1 mph - N/A   Unknown
12:15 PM 33.8 °F 25.8 °F 19.4 °F 56% 30.39 in 10.0 mi SSE 10.4 mph - N/A   Unknown
12:35 PM 33.8 °F 26.4 °F 21.2 °F 60% 30.39 in 10.0 mi SE 9.2 mph - N/A   Unknown
12:55 PM 33.8 °F 26.4 °F 21.2 °F 60% 30.38 in 10.0 mi SE 9.2 mph - N/A   Unknown
1:15 PM 33.8 °F 26.4 °F 21.2 °F 60% 30.37 in 10.0 mi SSE 9.2 mph - N/A   Unknown
1:35 PM 33.8 °F 26.4 °F 21.2 °F 60% 30.36 in 10.0 mi SE 9.2 mph - N/A   Unknown
1:55 PM 33.8 °F 27.0 °F 21.2 °F 60% 30.36 in 10.0 mi SE 8.1 mph - N/A   Unknown
2:15 PM 33.8 °F 27.0 °F 21.2 °F 60% 30.36 in 10.0 mi SE 8.1 mph - N/A   Unknown
2:35 PM 33.8 °F 26.4 °F 21.2 °F 60% 30.35 in 10.0 mi SSE 9.2 mph - N/A   Unknown
2:55 PM 35.6 °F 29.2 °F 19.4 °F 52% 30.35 in 10.0 mi SSE 8.1 mph - N/A   Unknown
3:15 PM 35.6 °F 28.0 °F 19.4 °F 52% 30.35 in 10.0 mi SSE 10.4 mph - N/A   Unknown
3:35 PM 35.6 °F 27.1 °F 19.4 °F 52% 30.35 in 10.0 mi SSE 12.7 mph - N/A   Unknown
3:55 PM 35.6 °F 26.2 °F 19.4 °F 52% 30.34 in 10.0 mi South 15.0 mph - N/A   Unknown
4:15 PM 35.6 °F 27.1 °F 19.4 °F 52% 30.34 in 10.0 mi South 12.7 mph - N/A   Unknown
4:35 PM 33.8 °F 24.8 °F 19.4 °F 56% 30.33 in 10.0 mi SSE 12.7 mph - N/A   Unknown
4:55 PM 33.8 °F 24.8 °F 17.6 °F 52% 30.33 in 10.0 mi SSE 12.7 mph - N/A   Unknown
5:15 PM 33.8 °F 24.3 °F 17.6 °F 52% 30.33 in 10.0 mi SSE 13.8 mph - N/A   Unknown
5:35 PM 33.8 °F 23.9 °F 17.6 °F 52% 30.33 in 10.0 mi SSE 15.0 mph - N/A   Unknown
5:55 PM 33.8 °F 24.3 °F 17.6 °F 52% 30.33 in 10.0 mi South 13.8 mph - N/A   Unknown
6:15 PM 33.8 °F 24.3 °F 17.6 °F 52% 30.32 in 10.0 mi South 13.8 mph - N/A   Unknown
6:35 PM 33.8 °F 23.5 °F 17.6 °F 52% 30.32 in 10.0 mi South 16.1 mph - N/A   Unknown
6:55 PM 33.8 °F 23.5 °F 17.6 °F 52% 30.32 in 10.0 mi South 16.1 mph - N/A   Unknown
7:15 PM 33.8 °F 23.9 °F 17.6 °F 52% 30.32 in 10.0 mi SSE 15.0 mph - N/A   Unknown
7:35 PM 33.8 °F 23.2 °F 19.4 °F 56% 30.32 in 10.0 mi SSE 17.3 mph - N/A   Unknown
7:55 PM 33.8 °F 23.9 °F 21.2 °F 60% 30.31 in 10.0 mi SSE 15.0 mph - N/A   Unknown
8:15 PM 33.8 °F 23.5 °F 21.2 °F 60% 30.31 in 10.0 mi SSE 16.1 mph 20.7 mph N/A   Unknown
8:35 PM 33.8 °F 22.8 °F 21.2 °F 60% 30.30 in 10.0 mi SSE 18.4 mph - N/A   Unknown
8:55 PM 32.0 °F 22.1 °F 21.2 °F 64% 30.30 in 10.0 mi SSE 13.8 mph - N/A   Unknown
9:15 PM 32.0 °F 20.8 °F 21.2 °F 64% 30.30 in 10.0 mi SSE 17.3 mph - N/A   Unknown
9:35 PM 32.0 °F 23.0 °F 19.4 °F 60% 30.29 in 10.0 mi SSE 11.5 mph - N/A   Unknown
9:55 PM 32.0 °F 24.2 °F 17.6 °F 55% 30.29 in 10.0 mi SSE 9.2 mph - N/A   Unknown
10:15 PM 32.0 °F 22.5 °F 19.4 °F 60% 30.29 in 10.0 mi SE 12.7 mph - N/A   Unknown
10:35 PM 32.0 °F 24.2 °F 19.4 °F 60% 30.28 in 10.0 mi SSE 9.2 mph - N/A   Unknown
10:55 PM 32.0 °F 24.2 °F 19.4 °F 60% 30.28 in 10.0 mi SE 9.2 mph - N/A   Unknown
11:15 PM 32.0 °F 22.5 °F 19.4 °F 60% 30.28 in 10.0 mi SE 12.7 mph - N/A   Unknown
11:35 PM 32.0 °F 23.6 °F 19.4 °F 60% 30.27 in 10.0 mi SE 10.4 mph - N/A   Unknown
11:55 PM 32.0 °F 22.5 °F 21.2 °F 64% 30.26 in 10.0 mi SE 12.7 mph - N/A   Unknown